Location: Warszawa
(52.2322°N, 21.0083°E)
Time: 11:20:24
(UTC+01:00)

ISS - Visible Passes

Search period start: 21 January 2021 00:00
Search period end: 31 January 2021 00:00
Orbit: 418 x 419 km, 51.6° (Epoch: 21 January)

Date Brightness Start Highest point End Pass type
(mag) Time Alt. Az. Time Alt. Az. Time Alt. Az.
21 Jan -2.3 17:56:30 10° SSW 17:59:17 24° SSE 17:59:24 24° SE visible
22 Jan -1.8 17:09:23 10° S 17:11:44 18° SE 17:13:44 12° ESE visible
22 Jan -2.1 18:44:44 10° WSW 18:46:41 31° SW 18:46:41 31° SW visible
23 Jan -3.2 17:57:08 10° SW 18:00:21 43° SSE 18:00:58 38° SE visible
23 Jan -0.3 19:33:37 10° W 19:33:55 12° W 19:33:55 12° W visible
24 Jan -2.6 17:09:37 10° SW 17:12:41 33° SSE 17:15:11 14° E visible
24 Jan -2.4 18:45:52 10° WSW 18:48:08 39° WSW 18:48:08 39° WSW visible
25 Jan -3.7 17:58:08 10° WSW 18:01:29 67° SSE 18:02:20 45° ESE visible
25 Jan -0.4 19:34:51 10° W 19:35:17 13° W 19:35:17 13° W visible
26 Jan -3.4 17:10:26 10° WSW 17:13:44 55° SSE 17:16:30 14° E visible
26 Jan -2.6 18:47:04 10° W 18:49:27 43° W 18:49:27 43° W visible
27 Jan -3.8 17:59:17 10° W 18:02:39 82° S 18:03:37 44° E visible
27 Jan -0.5 19:36:03 10° W 19:36:33 14° W 19:36:33 14° W visible
28 Jan -3.7 17:11:29 10° WSW 17:14:51 77° S 17:17:47 13° E visible
28 Jan -2.7 18:48:14 10° W 18:50:43 44° W 18:50:43 44° W visible
29 Jan -3.8 18:00:25 10° W 18:03:48 78° S 18:04:54 39° ESE visible
29 Jan -0.5 19:37:16 10° W 19:37:51 14° W 19:37:51 14° W visible
30 Jan -3.7 17:12:36 10° W 17:15:58 83° S 17:19:07 12° E visible
30 Jan -2.6 18:49:23 10° W 18:52:04 40° SW 18:52:04 40° SW visible
